• In Uzbekistan
  • List of Countries
  • For 7 days
  • Water Temperature
  • Satellite Maps
  • Weather Map
  • Weather Widgets
  • user-avatar
    Login

    Hourly Weather Tibissa

    Today, 24 March, Friday

    Time Temperature Precipitation Wind Pressure Humidity
    00:00 +10°C° 0 mm 4 mps 684 mmHg 68%
    01:00 +10°C° 0 mm 3 mps 684 mmHg 75%
    02:00 +9°C° 0 mm 3 mps 683 mmHg 77%
    03:00 +9°C° 0 mm 3 mps 683 mmHg 79%
    04:00 +8°C° 0 mm 3 mps 683 mmHg 81%
    05:00 +8°C° 0 mm 3 mps 683 mmHg 81%
    06:00 +8°C° 0 mm 3 mps 683 mmHg 81%
    07:00 +8°C° 0 mm 3 mps 683 mmHg 82%
    08:00 +10°C° 0 mm 4 mps 683 mmHg 70%
    09:00 +13°C° 0 mm 6 mps 684 mmHg 58%
    10:00 +15°C° 0 mm 7 mps 684 mmHg 46%
    11:00 +16°C° 0 mm 8 mps 684 mmHg 43%
    12:00 +17°C° 0 mm 8 mps 684 mmHg 39%
    13:00 +18°C° 0 mm 9 mps 684 mmHg 36%
    14:00 +18°C° 0 mm 9 mps 683 mmHg 37%
    15:00 +18°C° 0 mm 9 mps 683 mmHg 37%
    16:00 +18°C° 0 mm 10 mps 682 mmHg 37%
    17:00 +16°C° 0 mm 9 mps 682 mmHg 41%
    18:00 +15°C° 0 mm 8 mps 682 mmHg 46%
    19:00 +14°C° 0 mm 7 mps 681 mmHg 51%
    20:00 +12°C° 0 mm 7 mps 681 mmHg 58%
    21:00 +11°C° 0 mm 7 mps 682 mmHg 65%
    22:00 +10°C° 0 mm 8 mps 682 mmHg 72%
    23:00 +10°C° 0 mm 7 mps 682 mmHg 75%

    Tomorrow, 25 March, Saturday

    Time Temperature Precipitation Wind Pressure Humidity
    00:00 +9°C° 0 mm 6 mps 683 mmHg 78%
    01:00 +9°C° 0 mm 6 mps 683 mmHg 81%
    02:00 +9°C° 0 mm 5 mps 683 mmHg 84%
    03:00 +8°C° 0 mm 4 mps 683 mmHg 87%
    04:00 +9°C° 0 mm 3 mps 683 mmHg 91%
    05:00 +9°C° 0 mm 3 mps 684 mmHg 92%
    06:00 +8°C° 0 mm 2 mps 684 mmHg 94%
    07:00 +9°C° 0 mm 1 mps 684 mmHg 96%
    08:00 +11°C° 0 mm 1 mps 685 mmHg 84%
    09:00 +13°C° 0 mm 1 mps 686 mmHg 73%
    10:00 +15°C° 0 mm 2 mps 687 mmHg 61%
    11:00 +17°C° 0 mm 2 mps 687 mmHg 52%
    12:00 +18°C° 0 mm 3 mps 688 mmHg 43%
    13:00 +20°C° 0 mm 4 mps 688 mmHg 33%
    14:00 +20°C° 0 mm 4 mps 688 mmHg 33%
    15:00 +20°C° 0 mm 3 mps 687 mmHg 32%
    16:00 +20°C° 0 mm 3 mps 687 mmHg 31%
    17:00 +18°C° 0 mm 3 mps 687 mmHg 40%
    18:00 +16°C° 0 mm 3 mps 686 mmHg 49%
    19:00 +13°C° 0 mm 3 mps 686 mmHg 58%
    20:00 +13°C° 0 mm 2 mps 687 mmHg 63%
    21:00 +12°C° 0 mm 2 mps 687 mmHg 68%
    22:00 +12°C° 0 mm 1 mps 687 mmHg 73%
    23:00 +11°C° 0 mm 1 mps 687 mmHg 75%

    Day after tomorrow, 26 March, Sunday

    Time Temperature Precipitation Wind Pressure Humidity
    00:00 +11°C° 0 mm 1 mps 687 mmHg 78%
    01:00 +11°C° 0 mm 1 mps 687 mmHg 81%
    02:00 +10°C° 0 mm 1 mps 687 mmHg 84%
    03:00 +10°C° 0 mm 1 mps 687 mmHg 87%
    04:00 +10°C° 0 mm 1 mps 686 mmHg 89%
    05:00 +9°C° 0 mm 1 mps 686 mmHg 91%
    06:00 +9°C° 0 mm 1 mps 686 mmHg 93%
    07:00 +9°C° 0 mm 1 mps 686 mmHg 94%
    08:00 +11°C° 0 mm 1 mps 687 mmHg 79%
    09:00 +14°C° 0 mm 1 mps 687 mmHg 63%
    10:00 +16°C° 0 mm 1 mps 688 mmHg 48%
    11:00 +19°C° 0 mm 1 mps 688 mmHg 40%
    12:00 +20°C° 0 mm 1 mps 688 mmHg 33%
    13:00 +22°C° 0 mm 1 mps 688 mmHg 25%
    14:00 +22°C° 0 mm 1 mps 687 mmHg 25%
    15:00 +21°C° 0 mm 2 mps 687 mmHg 24%
    16:00 +21°C° 0 mm 2 mps 686 mmHg 24%
    17:00 +20°C° 0 mm 2 mps 686 mmHg 30%
    18:00 +18°C° 0 mm 2 mps 685 mmHg 37%
    19:00 +16°C° 0 mm 3 mps 685 mmHg 44%
    20:00 +15°C° 0 mm 2 mps 685 mmHg 49%
    21:00 +14°C° 0 mm 2 mps 685 mmHg 54%
    22:00 +13°C° 0 mm 2 mps 686 mmHg 59%
    23:00 +12°C° 0 mm 2 mps 686 mmHg 63%

    27 March, Monday

    Time Temperature Precipitation Wind Pressure Humidity
    00:00 +12°C° 0 mm 1 mps 685 mmHg 67%
    01:00 +11°C° 0 mm 1 mps 685 mmHg 70%
    02:00 +11°C° 0 mm 1 mps 685 mmHg 71%
    03:00 +10°C° 0 mm 1 mps 685 mmHg 72%
    04:00 +10°C° 0 mm 1 mps 684 mmHg 73%
    05:00 +10°C° 0 mm 1 mps 684 mmHg 70%
    06:00 +10°C° 0 mm 1 mps 685 mmHg 67%
    07:00 +10°C° 0 mm 1 mps 685 mmHg 64%
    08:00 +13°C° 0 mm 1 mps 686 mmHg 54%
    09:00 +16°C° 0 mm 1 mps 687 mmHg 43%
    10:00 +20°C° 0 mm 1 mps 688 mmHg 33%
    11:00 +20°C° 0 mm 2 mps 688 mmHg 29%
    12:00 +21°C° 0 mm 3 mps 688 mmHg 25%
    13:00 +24°C° 0 mm 3 mps 688 mmHg 21%
    14:00 +23°C° 0 mm 4 mps 688 mmHg 22%
    15:00 +23°C° 0 mm 4 mps 688 mmHg 24%
    16:00 +22°C° 0 mm 5 mps 687 mmHg 25%
    17:00 +20°C° 0 mm 5 mps 687 mmHg 35%
    18:00 +17°C° 0 mm 5 mps 687 mmHg 45%
    19:00 +15°C° 0 mm 4 mps 687 mmHg 55%
    20:00 +13°C° 0 mm 4 mps 688 mmHg 62%
    21:00 +12°C° 0 mm 3 mps 688 mmHg 68%
    22:00 +12°C° 0 mm 2 mps 688 mmHg 75%
    23:00 +10°C° 0 mm 2 mps 688 mmHg 76%

    28 March, Tuesday

    Time Temperature Precipitation Wind Pressure Humidity
    00:00 +10°C° 0 mm 2 mps 688 mmHg 78%
    01:00 +10°C° 0 mm 1 mps 688 mmHg 79%
    02:00 +10°C° 0 mm 1 mps 688 mmHg 81%
    03:00 +9°C° 0 mm 1 mps 688 mmHg 82%
    04:00 +9°C° 0 mm 1 mps 688 mmHg 83%
    05:00 +9°C° 0 mm 1 mps 688 mmHg 82%
    06:00 +9°C° 0 mm 1 mps 688 mmHg 82%
    07:00 +9°C° 0 mm 1 mps 689 mmHg 81%
    08:00 +12°C° 0 mm 1 mps 689 mmHg 68%
    09:00 +14°C° 0 mm 1 mps 690 mmHg 56%
    10:00 +16°C° 0 mm 1 mps 691 mmHg 43%
    11:00 +18°C° 0 mm 2 mps 691 mmHg 38%
    12:00 +19°C° 0 mm 2 mps 691 mmHg 34%
    13:00 +20°C° 0 mm 2 mps 691 mmHg 30%
    14:00 +20°C° 0 mm 3 mps 691 mmHg 31%
    15:00 +20°C° 0 mm 4 mps 691 mmHg 32%
    16:00 +20°C° 0 mm 4 mps 690 mmHg 34%
    17:00 +18°C° 0.6 mm 4 mps 690 mmHg 44%
    18:00 +16°C° 0.6 mm 3 mps 690 mmHg 55%
    19:00 +13°C° 0.6 mm 3 mps 690 mmHg 65%
    20:00 +13°C° 0.6 mm 2 mps 691 mmHg 70%
    21:00 +13°C° 0.6 mm 2 mps 691 mmHg 74%
    22:00 +12°C° 0.6 mm 2 mps 691 mmHg 79%
    23:00 +11°C° 0.1 mm 1 mps 691 mmHg 80%

    29 March, Wednesday

    Time Temperature Precipitation Wind Pressure Humidity
    00:00 +11°C° 0.1 mm 1 mps 691 mmHg 81%
    01:00 +10°C° 0.1 mm 1 mps 690 mmHg 82%
    02:00 +10°C° 0 mm 1 mps 690 mmHg 84%
    03:00 +9°C° 0 mm 1 mps 690 mmHg 85%
    04:00 +9°C° 0 mm 1 mps 690 mmHg 87%
    05:00 +9°C° 0 mm 1 mps 690 mmHg 87%
    06:00 +9°C° 0 mm 1 mps 690 mmHg 88%
    07:00 +9°C° 0 mm 1 mps 691 mmHg 88%
    08:00 +11°C° 0 mm 1 mps 691 mmHg 79%
    09:00 +13°C° 0 mm 1 mps 692 mmHg 69%
    10:00 +14°C° 0 mm 2 mps 692 mmHg 59%
    11:00 +15°C° 0 mm 2 mps 692 mmHg 51%
    12:00 +17°C° 0 mm 3 mps 692 mmHg 44%
    13:00 +18°C° 0 mm 3 mps 692 mmHg 36%
    14:00 +18°C° 0 mm 3 mps 692 mmHg 35%
    15:00 +18°C° 0 mm 3 mps 691 mmHg 33%
    16:00 +18°C° 0 mm 3 mps 691 mmHg 32%
    17:00 +16°C° 0 mm 3 mps 691 mmHg 40%
    18:00 +14°C° 0 mm 3 mps 691 mmHg 47%
    19:00 +13°C° 0 mm 2 mps 691 mmHg 55%
    20:00 +12°C° 0 mm 2 mps 691 mmHg 63%
    21:00 +10°C° 0 mm 2 mps 691 mmHg 70%
    22:00 +9°C° 0 mm 2 mps 691 mmHg 78%
    23:00 +9°C° 0 mm 1 mps 691 mmHg 81%
    Show more